KC8ZBC Weather Reports


time (UTC)temp
C
wind
direction
speed
KPH
gust
KPH
rain 1hr
cm
rain 24hr
cm
rain mn
cm
humidity
%
barometer
mb
20260509032437 8 98 0.0 0.0 0.00 0.00 0.00 63 982.4
20260509031935 8 98 0.0 0.0 0.00 0.00 0.00 57 982.5
20260509031432 8 98 0.0 0.0 0.00 0.00 0.00 62 982.5
20260509030929 8 99 0.0 0.0 0.00 0.00 0.00 60 982.7
20260509030427 8 99 0.0 0.0 0.00 0.00 0.00 60 982.7
20260509025924 8 114 0.0 1.6 0.00 0.00 0.00 59 983.0
20260509025419 8 114 1.6 1.6 0.00 0.00 0.00 59 982.8
20260509024914 8 99 0.0 1.6 0.00 0.00 0.00 56 982.7
20260509024411 9 114 0.0 1.6 0.00 0.00 0.00 56 982.8
20260509023908 9 145 0.0 1.6 0.00 0.00 0.00 55 982.6
20260509023406 10 114 0.0 0.0 0.00 0.00 0.00 53 983.0
20260509022902 10 114 0.0 0.0 0.00 0.00 0.00 50 982.9
20260509022359 10 90 0.0 1.6 0.00 0.00 0.00 49 982.7
20260509021856 10 99 0.0 0.0 0.00 0.00 0.00 50 982.9
20260509021353 10 165 0.0 0.0 0.00 0.00 0.00 48 983.0
20260509020851 11 165 0.0 1.6 0.00 0.00 0.00 48 982.9
20260509020349 11 180 1.6 3.2 0.00 0.00 0.00 46 982.9
20260509015846 11 151 0.0 0.0 0.00 0.00 0.00 50 982.8
20260509015344 11 15 0.0 0.0 0.00 0.00 0.00 52 982.8
20260509014840 11 15 0.0 0.0 0.00 0.00 0.00 51 982.8
20260509014337 11 15 0.0 0.0 0.00 0.00 0.00 50 982.6
20260509013834 11 15 0.0 0.0 0.00 0.00 0.00 50 982.8
20260509013331 12 15 0.0 1.6 0.00 0.00 0.00 52 982.7
20260509012826 12 106 0.0 0.0 0.00 0.00 0.00 52 982.6
20260509012323 12 106 0.0 0.0 0.00 0.00 0.00 48 982.3
20260509011821 12 106 0.0 0.0 0.00 0.00 0.00 48 982.7
20260509011318 12 90 0.0 1.6 0.00 0.00 0.00 46 982.6
20260509010815 12 8 0.0 0.0 0.00 0.00 0.00 45 982.3
20260509010312 12 8 0.0 0.0 0.00 0.00 0.00 45 982.2
20260509005810 13 8 0.0 0.0 0.00 0.00 0.00 43 982.1
20260509005308 13 114 0.0 0.0 0.00 0.00 0.00 42 982.2
20260509004808 13 81 0.0 0.0 0.00 0.00 0.00 43 982.0
20260509004304 14 114 0.0 0.0 0.00 0.00 0.00 41 982.0
20260509003802 14 117 0.0 3.2 0.00 0.00 0.00 40 982.1
20260509003300 14 106 0.0 0.0 0.00 0.00 0.00 40 981.9
20260509002757 15 106 0.0 3.2 0.00 0.00 0.00 39 981.8
20260509002254 15 114 0.0 0.0 0.00 0.00 0.00 38 981.9
20260509001752 15 114 0.0 0.0 0.00 0.00 0.00 37 982.0
20260509001247 15 348 0.0 0.0 0.00 0.00 0.00 36 981.9
20260509000745 15 90 0.0 1.6 0.00 0.00 0.00 37 981.8
20260509000242 15 98 0.0 1.6 0.00 0.00 0.00 35 981.7
20260508235739 15 99 0.0 0.0 0.00 0.00 0.00 35 981.8
20260508235236 15 105 0.0 0.0 0.00 0.00 0.00 34 981.8
20260508234733 15 277 0.0 3.2 0.00 0.00 0.00 32 981.9
20260508234230 16 286 0.0 0.0 0.00 0.00 0.00 35 981.8
20260508233729 16 286 0.0 1.6 0.00 0.00 0.00 33 981.8
20260508233227 16 261 0.0 4.8 0.00 0.00 0.00 32 981.8
20260508232724 16 300 0.0 4.8 0.00 0.00 0.00 35 981.9
20260508232220 16 243 0.0 4.8 0.00 0.00 0.00 32 981.8
20260508231718 17 23 0.0 3.2 0.00 0.00 0.00 32 981.8
20260508231215 16 225 0.0 4.8 0.00 0.00 0.00 34 981.8
20260508230712 17 225 3.2 9.7 0.00 0.00 0.00 33 982.0
20260508230208 17 348 0.0 4.8 0.00 0.00 0.00 32 981.9
20260508225706 16 99 0.0 3.2 0.00 0.00 0.00 35 982.0
20260508225202 17 206 1.6 4.8 0.00 0.00 0.00 33 982.0
20260508224700 16 251 1.6 3.2 0.00 0.00 0.00 33 981.9
20260508224157 16 214 3.2 4.8 0.00 0.00 0.00 34 982.0
20260508223655 16 185 1.6 9.7 0.00 0.00 0.00 33 982.0
20260508223152 16 278 0.0 4.8 0.00 0.00 0.00 34 982.1
20260508222649 16 45 3.2 4.8 0.00 0.00 0.00 33 982.2
20260508222146 16 188 0.0 4.8 0.00 0.00 0.00 34 982.1
20260508221642 16 241 0.0 3.2 0.00 0.00 0.00 35 982.3
20260508221138 16 209 0.0 8.0 0.00 0.00 0.00 35 982.1
20260508220635 17 334 4.8 17.7 0.00 0.00 0.00 34 982.1
20260508220132 18 243 3.2 4.8 0.00 0.00 0.00 32 982.0
20260508215628 18 236 0.0 11.3 0.00 0.00 0.00 32 982.3
20260508215125 17 221 0.0 11.3 0.00 0.00 0.00 31 982.3
20260508214622 17 180 1.6 4.8 0.00 0.00 0.00 31 982.4
20260508214119 17 288 4.8 4.8 0.00 0.00 0.00 31 982.4
20260508213616 17 296 4.8 6.4 0.00 0.00 0.00 32 982.2
20260508213112 17 348 0.0 6.4 0.00 0.00 0.00 31 982.3
20260508212609 17 243 1.6 6.4 0.00 0.00 0.00 30 982.3
20260508212105 17 330 6.4 8.0 0.00 0.00 0.00 30 982.5
20260508211600 17 285 3.2 6.4 0.00 0.00 0.00 30 982.4
20260508211057 17 20 0.0 8.0 0.00 0.00 0.00 30 982.4
20260508210554 17 270 0.0 4.8 0.00 0.00 0.00 31 982.6
20260508210051 17 209 0.0 6.4 0.00 0.00 0.00 30 982.5
20260508205548 17 236 3.2 4.8 0.00 0.00 0.00 30 982.6
20260508205044 17 250 3.2 4.8 0.00 0.00 0.00 30 982.5
20260508204541 17 235 3.2 16.1 0.00 0.00 0.00 31 982.6
20260508204037 17 246 4.8 6.4 0.00 0.00 0.00 33 982.7
20260508203533 17 249 1.6 11.3 0.00 0.00 0.00 32 982.9
20260508203029 16 300 1.6 4.8 0.00 0.00 0.00 32 982.9
20260508202526 16 206 4.8 9.7 0.00 0.00 0.00 32 983.2
20260508202023 16 285 9.7 11.3 0.00 0.00 0.00 32 983.1
20260508201520 16 321 6.4 8.0 0.00 0.00 0.00 30 983.1
20260508201016 17 107 3.2 6.4 0.00 0.00 0.00 31 983.2
20260508200514 17 344 0.0 8.0 0.00 0.00 0.00 31 983.2
20260508200009 16 320 3.2 4.8 0.00 0.00 0.00 32 983.4
20260508195506 16 157 4.8 11.3 0.00 0.00 0.00 33 983.4
20260508195002 16 203 3.2 11.3 0.00 0.00 0.00 32 983.6
20260508194459 16 212 0.0 8.0 0.00 0.00 0.00 31 983.8
20260508193956 16 225 3.2 6.4 0.00 0.00 0.00 32 983.8
20260508193453 15 180 0.0 3.2 0.00 0.00 0.00 32 984.0
20260508192949 16 330 3.2 8.0 0.00 0.00 0.00 32 984.0
20260508192446 16 252 4.8 9.7 0.00 0.00 0.00 33 984.2
20260508191943 16 159 6.4 12.9 0.00 0.00 0.00 31 984.0
20260508191440 16 234 1.6 8.0 0.00 0.00 0.00 33 984.1
20260508190937 16 191 3.2 4.8 0.00 0.00 0.00 31 984.1
20260508190434 16 261 0.0 16.1 0.00 0.00 0.00 32 984.2
20260508185930 16 225 3.2 8.0 0.00 0.00 0.00 30 984.1
20260508185428 16 243 4.8 8.0 0.00 0.00 0.00 32 984.3
20260508184925 16 199 3.2 4.8 0.00 0.00 0.00 30 984.3
20260508184423 16 237 8.0 14.5 0.00 0.00 0.00 31 984.4
20260508183919 16 231 9.7 11.3 0.00 0.00 0.00 32 984.4
20260508183416 15 192 0.0 11.3 0.00 0.00 0.00 30 984.6
20260508182911 15 293 3.2 8.0 0.00 0.00 0.00 31 984.4
20260508182409 15 217 9.7 17.7 0.00 0.00 0.00 31 984.5
20260508181903 15 228 6.4 9.7 0.00 0.00 0.00 31 984.6
20260508181401 15 218 3.2 8.0 0.00 0.00 0.00 31 984.5
20260508180858 15 0 1.6 4.8 0.00 0.00 0.00 30 984.5
20260508180355 16 340 4.8 9.7 0.00 0.00 0.00 29 984.8
20260508175850 16 213 3.2 12.9 0.00 0.00 0.00 30 984.9
20260508175347 17 189 0.0 11.3 0.00 0.00 0.00 27 984.8
20260508174846 16 287 3.2 4.8 0.00 0.00 0.00 28 984.9
20260508174343 16 159 0.0 6.4 0.00 0.00 0.00 31 985.2
20260508173839 16 245 4.8 8.0 0.00 0.00 0.00 30 985.3
20260508173336 16 279 0.0 4.8 0.00 0.00 0.00 30 985.3
20260508172832 16 41 6.4 8.0 0.00 0.00 0.00 29 985.0
20260508172329 15 157 1.6 9.7 0.00 0.00 0.00 30 985.5
20260508171826 16 231 6.4 8.0 0.00 0.00 0.00 30 985.5
20260508171322 16 239 3.2 8.0 0.00 0.00 0.00 28 985.5
20260508170819 16 107 9.7 9.7 0.00 0.00 0.00 30 985.6
20260508170317 16 191 0.0 8.0 0.00 0.00 0.00 31 985.7
20260508165814 16 270 4.8 8.0 0.00 0.00 0.00 32 985.6
20260508165311 16 187 9.7 9.7 0.00 0.00 0.00 32 985.8
20260508164807 16 8 0.0 6.4 0.00 0.00 0.00 27 985.8
20260508164303 16 257 4.8 8.0 0.00 0.00 0.00 27 985.9
20260508163802 15 121 3.2 9.7 0.00 0.00 0.00 33 985.9
20260508163259 15 234 1.6 4.8 0.00 0.00 0.00 29 985.9
20260508162754 15 14 3.2 9.7 0.00 0.00 0.00 27 986.2
20260508162251 14 286 1.6 11.3 0.00 0.00 0.00 30 986.4
20260508161749 15 292 8.0 8.0 0.00 0.00 0.00 29 986.0
20260508161246 16 195 4.8 6.4 0.00 0.00 0.00 30 986.1
20260508160744 15 276 1.6 8.0 0.00 0.00 0.00 29 986.4
20260508160242 15 106 0.0 3.2 0.00 0.00 0.00 31 986.2
20260508155738 14 266 3.2 6.4 0.00 0.00 0.00 33 986.2
20260508155235 15 312 3.2 6.4 0.00 0.00 0.00 32 986.5
20260508154732 15 217 11.3 11.3 0.00 0.00 0.00 32 986.6
20260508154230 14 5 3.2 8.0 0.00 0.00 0.00 31 986.4
20260508153726 15 103 3.2 8.0 0.00 0.00 0.00 33 986.4
20260508153223 13 243 4.8 11.3 0.00 0.00 0.00 32 986.4
20260508152720 13 349 1.6 8.0 0.00 0.00 0.00 34 986.4
20260508152215 13 354 1.6 6.4 0.00 0.00 0.00 32 986.5
20260508151712 14 15 4.8 4.8 0.00 0.00 0.00 31 986.6
20260508151209 13 305 4.8 4.8 0.00 0.00 0.00 33 986.5
20260508150705 14 279 3.2 4.8 0.00 0.00 0.00 35 986.6
20260508150202 15 190 6.4 8.0 0.00 0.00 0.00 34 986.7
20260508145658 15 243 4.8 4.8 0.00 0.00 0.00 34 986.8
20260508145154 13 270 1.6 3.2 0.00 0.00 0.00 35 986.8
20260508144652 13 246 4.8 4.8 0.00 0.00 0.00 38 986.7
20260508144149 13 337 3.2 4.8 0.00 0.00 0.00 35 986.6
20260508143647 13 0 3.2 8.0 0.00 0.00 0.00 35 986.9
20260508143144 12 40 3.2 4.8 0.00 0.00 0.00 36 986.8
20260508142640 12 302 4.8 4.8 0.00 0.00 0.00 37 986.9
20260508142137 12 196 4.8 8.0 0.00 0.00 0.00 40 986.9
20260508141633 12 297 1.6 9.7 0.00 0.00 0.00 40 986.8
20260508141131 13 81 0.0 3.2 0.00 0.00 0.00 43 986.9
20260508140628 12 332 3.2 4.8 0.00 0.00 0.00 44 986.8
20260508140125 12 283 1.6 6.4 0.00 0.00 0.00 47 986.9
20260508135620 12 160 0.0 4.8 0.00 0.00 0.00 46 986.9
20260508135116 12 294 0.0 3.2 0.00 0.00 0.00 45 987.0
20260508134614 11 280 3.2 4.8 0.00 0.00 0.00 46 987.1
20260508134111 11 66 6.4 6.4 0.00 0.00 0.00 46 987.2
20260508133607 11 157 3.2 6.4 0.00 0.00 0.00 50 987.2
20260508133105 11 111 0.0 4.8 0.00 0.00 0.00 50 987.2
20260508132602 11 45 4.8 6.4 0.00 0.00 0.00 55 987.1
20260508132059 11 180 0.0 1.6 0.00 0.00 0.00 55 987.2
20260508131554 10 5 0.0 4.8 0.00 0.00 0.00 56 987.1
20260508131051 10 0 0.0 3.2 0.00 0.00 0.00 55 987.2
20260508130548 10 290 0.0 4.8 0.00 0.00 0.00 53 987.4
20260508130045 10 97 0.0 3.2 0.00 0.00 0.00 56 987.1
20260508125540 10 165 0.0 4.8 0.00 0.00 0.00 54 987.2
20260508125038 9 201 3.2 4.8 0.00 0.00 0.00 61 987.2
20260508124536 10 187 0.0 3.2 0.00 0.00 0.00 64 987.3
20260508124033 10 185 1.6 3.2 0.00 0.00 0.00 67 987.2
20260508123531 8 114 0.0 3.2 0.00 0.00 0.00 73 987.3
20260508123028 7 149 4.8 8.0 0.00 0.00 0.00 74 987.1
20260508122525 7 185 0.0 4.8 0.00 0.00 0.00 74 987.2
20260508122022 6 180 3.2 3.2 0.00 0.00 0.00 77 987.0
20260508121520 6 180 1.6 3.2 0.00 0.00 0.00 80 987.0
20260508121018 6 143 0.0 3.2 0.00 0.00 0.00 80 987.0
20260508120514 6 168 1.6 1.6 0.00 0.00 0.00 84 986.8
20260508120013 6 123 1.6 3.2 0.00 0.00 0.00 89 986.8
20260508115510 5 110 3.2 3.2 0.00 0.00 0.00 92 986.7
20260508115006 3 99 3.2 4.8 0.00 0.00 0.00 94 986.8
20260508114504 3 84 1.6 3.2 0.00 0.00 0.00 95 986.7
20260508114000 3 90 1.6 3.2 0.00 0.00 0.00 96 986.7
20260508113458 3 117 3.2 3.2 0.00 0.00 0.00 96 986.4
20260508112955 2 110 3.2 3.2 0.00 0.00 0.00 96 986.5
20260508112451 2 102 1.6 3.2 0.00 0.00 0.00 96 986.4
20260508111948 2 95 3.2 3.2 0.00 0.00 0.00 96 986.4
20260508111445 2 99 3.2 4.8 0.00 0.00 0.00 96 986.4
20260508110942 2 90 1.6 3.2 0.00 0.00 0.00 96 986.6
20260508110440 1 90 3.2 3.2 0.00 0.00 0.00 96 986.5
20260508105939 1 99 3.2 3.2 0.00 0.00 0.00 96 986.4
20260508105436 1 90 0.0 3.2 0.00 0.00 0.00 96 986.2
20260508104933 1 106 3.2 4.8 0.00 0.00 0.00 96 986.2
20260508104431 1 103 1.6 3.2 0.00 0.00 0.00 96 986.4
20260508103927 1 101 4.8 4.8 0.00 0.00 0.00 95 986.4
20260508103424 1 99 3.2 4.8 0.00 0.00 0.00 95 986.1
20260508102921 1 99 4.8 4.8 0.00 0.00 0.00 95 986.2
20260508102420 1 110 3.2 4.8 0.00 0.00 0.00 95 986.4
20260508101916 1 95 3.2 3.2 0.00 0.00 0.00 95 986.2
20260508101414 1 90 3.2 4.8 0.00 0.00 0.00 95 986.4
20260508100911 1 90 1.6 3.2 0.00 0.00 0.00 95 986.2
20260508100410 1 97 1.6 3.2 0.00 0.00 0.00 95 986.4
20260508095911 1 90 3.2 3.2 0.00 0.00 0.00 94 986.5
20260508095409 1 83 1.6 3.2 0.00 0.00 0.00 94 986.6
20260508094905 1 117 4.8 4.8 0.00 0.00 0.00 94 986.4
20260508094402 1 120 1.6 3.2 0.00 0.00 0.00 94 986.5
20260508093859 1 120 1.6 3.2 0.00 0.00 0.00 94 986.5
20260508093356 1 85 3.2 3.2 0.00 0.00 0.00 94 986.6
20260508092854 2 66 1.6 3.2 0.00 0.00 0.00 94 986.7
20260508092351 2 77 1.6 3.2 0.00 0.00 0.00 93 986.6
20260508091850 2 73 3.2 3.2 0.00 0.00 0.00 93 986.6
20260508091346 2 90 3.2 3.2 0.00 0.00 0.00 93 986.5
20260508090844 2 96 3.2 4.8 0.00 0.00 0.00 92 986.6
20260508090343 2 102 3.2 3.2 0.00 0.00 0.00 91 986.7
20260508085843 2 115 3.2 4.8 0.00 0.00 0.00 91 986.7
20260508085340 2 99 3.2 3.2 0.00 0.00 0.00 90 986.7
20260508084836 2 99 3.2 3.2 0.00 0.00 0.00 89 986.6
20260508084333 3 99 3.2 3.2 0.00 0.00 0.00 88 986.8
20260508083832 3 105 0.0 3.2 0.00 0.00 0.00 88 986.7
20260508083329 3 90 1.6 1.6 0.00 0.00 0.00 87 986.6
20260508082828 3 90 1.6 1.6 0.00 0.00 0.00 86 986.6
20260508082326 3 96 3.2 3.2 0.00 0.00 0.00 86 986.7
20260508081823 3 83 1.6 3.2 0.00 0.00 0.00 85 986.6
20260508081320 3 126 1.6 1.6 0.00 0.00 0.00 85 986.7
20260508080817 3 90 1.6 1.6 0.00 0.00 0.00 84 986.7
20260508080315 4 57 1.6 3.2 0.00 0.00 0.00 84 986.6
20260508075811 4 135 0.0 3.2 0.00 0.00 0.00 84 986.2
20260508075309 4 114 0.0 3.2 0.00 0.00 0.00 83 986.5
20260508074806 4 105 0.0 3.2 0.00 0.00 0.00 82 986.5
20260508074302 4 115 3.2 3.2 0.00 0.00 0.00 82 986.6
20260508073800 5 49 0.0 0.0 0.00 0.00 0.00 82 986.7
20260508073258 5 51 3.2 4.8 0.00 0.00 0.00 82 986.4
20260508072753 5 90 0.0 0.0 0.00 0.00 0.00 81 986.4
20260508072250 5 66 0.0 1.6 0.00 0.00 0.00 81 986.4
20260508071748 5 106 0.0 3.2 0.00 0.00 0.00 80 986.2
20260508071246 5 100 3.2 3.2 0.00 0.00 0.00 80 986.5
20260508070743 5 94 3.2 4.8 0.00 0.00 0.00 80 986.4
20260508070242 5 98 0.0 3.2 0.00 0.00 0.00 80 986.6
20260508065738 5 97 0.0 4.8 0.00 0.00 0.00 79 986.5
20260508065236 5 82 3.2 3.2 0.00 0.00 0.00 81 986.5
20260508064734 5 75 3.2 4.8 0.00 0.00 0.00 80 986.7
20260508064232 5 102 1.6 3.2 0.00 0.00 0.00 79 986.7
20260508063729 5 106 0.0 3.2 0.00 0.00 0.00 79 986.6
20260508063227 5 111 4.8 4.8 0.00 0.00 0.00 79 986.8
20260508062724 6 94 4.8 4.8 0.00 0.00 0.00 78 986.9
20260508062221 5 74 0.0 3.2 0.00 0.00 0.00 77 986.9
20260508061718 5 40 0.0 1.6 0.00 0.00 0.00 78 987.0
20260508061215 5 90 1.6 3.2 0.00 0.00 0.00 79 987.1
20260508060712 5 79 0.0 3.2 0.00 0.00 0.00 78 986.9
20260508060209 5 85 3.2 4.8 0.00 0.00 0.00 77 987.0
20260508055705 5 78 3.2 4.8 0.00 0.00 0.00 76 987.0
20260508055202 5 63 1.6 3.2 0.00 0.00 0.00 77 987.2
20260508054658 5 15 0.0 0.0 0.00 0.00 0.00 77 987.1
20260508054156 5 0 1.6 3.2 0.00 0.00 0.00 78 987.0
20260508053653 6 175 0.0 4.8 0.00 0.00 0.00 77 986.8
20260508053150 6 120 0.0 8.0 0.00 0.00 0.00 74 986.7
20260508052647 6 119 3.2 6.4 0.00 0.00 0.00 74 987.4
20260508052144 6 4 3.2 4.8 0.00 0.00 0.00 77 987.4
20260508051641 6 90 3.2 4.8 0.00 0.00 0.00 77 987.1
20260508051136 6 101 3.2 4.8 0.00 0.00 0.00 76 987.0
20260508050632 6 85 3.2 3.2 0.00 0.00 0.00 76 987.0
20260508050130 6 114 0.0 4.8 0.00 0.00 0.00 72 987.0
20260508045626 5 90 3.2 3.2 0.00 0.00 0.00 73 987.2
20260508045124 5 77 1.6 4.8 0.00 0.00 0.00 77 987.3
20260508044621 6 84 3.2 3.2 0.00 0.00 0.00 77 987.1
20260508044117 6 90 0.0 0.0 0.00 0.00 0.00 74 987.1
20260508043614 6 168 0.0 1.6 0.00 0.00 0.00 74 987.0
20260508043112 6 81 3.2 4.8 0.00 0.00 0.00 75 987.0
20260508042608 5 105 0.0 3.2 0.00 0.00 0.00 77 987.1
20260508042105 5 60 0.0 3.2 0.00 0.00 0.00 78 987.2
20260508041601 5 32 4.8 4.8 0.00 0.00 0.00 78 987.5
20260508041058 5 0 0.0 1.6 0.00 0.00 0.00 78 987.1
20260508040554 5 270 0.0 1.6 0.00 0.00 0.00 77 987.0
20260508040053 5 114 0.0 0.0 0.00 0.00 0.00 79 986.9
20260508035549 5 114 0.0 1.6 0.00 0.00 0.00 78 986.9
20260508035046 5 111 0.0 1.6 0.00 0.00 0.00 76 986.8
20260508034543 5 154 1.6 3.2 0.00 0.00 0.00 74 986.7
20260508034040 5 75 1.6 1.6 0.00 0.00 0.00 75 986.8
20260508033538 5 106 0.0 1.6 0.00 0.00 0.00 74 986.8
20260508033036 5 82 0.0 1.6 0.00 0.00 0.00 74 986.7